一网星座-0517星 (ONEWEB-0517 )

导读 | 星芒AI

ONEWEB-0517 是 OneWeb 卫星星座计划中的一颗低轨通信卫星,旨在为全球提供高速互联网服务。该卫星采用标准化设计,具备高容量和高效率的通信能力,支持偏远和农村地区的网络接入。作为 OneWeb 扩展其卫星群的一部分,ONEWEB-0517 在轨运行有助于增强网络覆盖和系统冗余,提升整体服务稳定性。该卫星由 Arianespace 或其他发射服务商送入预定轨道,是实现 OneWeb 全球宽带愿景的重要组成部分。

基本信息
目录编号:
54135
目录名称:
ONEWEB-0517
国际标识:
2022-138Y
轨道中心:
EARTH
卫星名称:
一网星座-0517星
卫星全名:
一网星座-0517星 (ONEWEB-0517 )
卫星状态:
在轨 (已飞行1150 天)
发射日期:
2022-10-22 UTC
国别 :
英国 (GB)
星等 :
--
轨道信息
数据来源 国际轨道数据 AOE轨道数据
星历时间 2025-12-15T05:24:18+0800
21小时前
查看轨道信息
2025-12-10T04:00:00+0800
5天前
查看轨道信息
半长轴 7563.913km 7563.912km
偏心率 0.000195 0.0002064
轨道倾角 87.921° 87.921°
近地点辐角 95.639° 98.200°
升交点赤经 341.632° 342.639°
平近点角 264.496° 2.544°
近地点 1184.303km 1184.215km
远地点 1187.253km 1187.339km
周期 109.114分钟 109.114分钟
每日圈数 13.197236 13.19724
详细信息
平衡模式:
三轴稳定
覆盖范围:
全球
运营商:
一网卫星公司
运营商所在国:
英国
制造商(研发单位):
一网卫星公司
制造商所在国:
英国
使用方式:
暂无
卫星简介
OneWeb卫星网络由648颗重约125公斤的微型卫星组成,运行在1200公里的轨道上。 每颗卫星都能够提供至少每秒8千兆位的吞吐量,以使用其高吞吐量的Ku频段有效载荷为家庭和移动平台提供互联网接入。该卫星仍在工作。
2D轨道图
3D轨道图
轨道高度分析图
轨道倾角分析图
轨道综合分析图
查看轨道综合分析图